PPR Request

Prior permission is required for take-offs and landings. Make a prior permission request here on day of flight.

Traffic Circuit Slot

Make your PPR request first, then the TC slot reservation. Price 5 € / 15 minute slot.

Aerodrome Info

Updated 24 SEP 2020 11:57 LT

  • Internal border traffic without restrictions: Estonia, Germany, Iceland, Latvia, Liechtenstein, Lithuania, Norway, Poland, Slovakia and Sweden.- All other international flights require special border crossing permit from the Finnish Border Guard. For more information: www.raja.fi/en
  • NOTE: Flocks of birds frequently observed on RWY. Water ponds on apron and taxiways
  • Recommended runway:

Contact duty officer at +358 20 7545 129 for more information.

Remember to close your flight plan: ACC tel. +358 3 386 5172.

Weather


Helsinki Malmi lentokenttä
AWS ILHF 252130Z AUTO 10003KT CAVOK 14/12 Q1008=



Helsinki-Malmin lentoasema

Welcome to Helsinki-Malmi Airport

Helsinki-Malmi is the busiest general aviation airport in Finland, operated by Malmi Airfield Association.

Behind the association are organizations, companies and persons operating at the Malmi Airport.

The Association’s work is funded by membership fees and season card fees. The Association needs both full members and supporting members to finance its activity.

Be involved in continuing Malmi’s aviation activities and join as a member!